2017-008V

Last updated on Wed Mar 01 2017 00:15:03 GMT+0000 (Coordinated Universal Time)

1 41967U 17008V 17059.75337490 .00001678 00000-0 77853-4 0 9999 2 41967 97.5099 121.3540 0008402 203.9923 156.0906 15.21432045 1887

Satellite not in orbit

2017-008V